Location: Doughton Park
(36.4224°N, 81.1835°W)
Time: 22:31:15
(UTC-04:00)

Amateur Radio Satellites - All Passes

Search period start: 06 July 2015 22:01
Search period end: 07 July 2015 22:01
Location: Doughton Park, 36.4224°N, 81.1835°W

Satellite Date Start Highest point End Downlink Frequencies (MHz)
Time Altitude Azimuth
Oscar 11 06 Jul 22:02:08 22:06:20 59° 75° (ENE) 22:10:35 145.826/435.025
UKube-1 06 Jul 22:03:07 22:04:12 11° 66° (ENE) 22:05:33 .
CUBEBUG 2 06 Jul 22:07:53 22:12:08 66° 76° (ENE) 22:16:18 437.445
CUTE 1.7 + AOD 2 06 Jul 22:13:03 22:16:25 23° 266° (W) 22:19:43 437.475
GONETS M04 06 Jul 22:14:17 22:21:54 34° 273° (W) 22:29:18
GOMX 1 06 Jul 22:16:46 22:19:41 15° 269° (W) 22:22:16 467.674
CANX-2 06 Jul 22:17:15 22:20:16 18° 267° (W) 22:23:09 2200.000
AUBIESAT-1 06 Jul 22:21:12 22:25:35 79° 107° (ESE) 22:30:12 437.475
AISAT 06 Jul 22:32:43 22:35:12 15° 67° (ENE) 22:37:51 437.250
FUNcube-1 06 Jul 22:34:04 22:38:15 78° 77° (ENE) 22:42:25 145.935
Cosmos 2499 06 Jul 22:34:38 22:42:40 77° 82° (E) 22:51:16 435.465 / 435.565
50 SAT 06 Jul 22:49:25 22:52:18 21° 71° (ENE) 22:55:17 437.505
TIGRISAT 06 Jul 22:50:56 22:52:32 12° 90° (E) 22:54:25 435.000
UWE-3 06 Jul 22:53:48 22:57:51 43° 261° (W) 23:01:51 435.000/436.395/437.385
M-CUBED/EXP-1 PRIME 06 Jul 22:58:20 23:02:18 35° 292° (WNW) 23:06:27 437.505
DELFI C3 06 Jul 22:59:01 23:02:46 38° 262° (W) 23:06:32 145.870
AAUSAT CUBESAT 2 06 Jul 23:04:16 23:05:29 11° 271° (W) 23:06:27 437.432
ESTCUBE 1 06 Jul 23:12:44 23:16:27 26° 70° (ENE) 23:20:16 437.505/2401.250
DX 1 06 Jul 23:18:32 23:22:55 89° 245° (WSW) 23:27:21 434.975-435.025
VELOX 1 06 Jul 23:19:08 23:23:25 47° 74° (ENE) 23:27:43 145.980
UNISAT 6 06 Jul 23:29:44 23:33:49 36° 98° (E) 23:38:00 437.425
HUMSAT D 06 Jul 23:32:54 23:36:51 47° 261° (W) 23:40:49 437.325/437.525
UKube-1 06 Jul 23:35:35 23:39:52 61° 259° (W) 23:44:11 .
ZACube-1 06 Jul 23:36:45 23:39:46 18° 267° (W) 23:42:36 437.345
SPROUT 06 Jul 23:36:59 23:37:01 10° 66° (ENE) 23:37:18 437.525
QB50P1 06 Jul 23:45:33 23:48:37 20° 94° (E) 23:51:47 145.935-145.965
NANOSAT C BR1 06 Jul 23:58:17 00:01:53 28° 96° (E) 00:05:32 145.865
AUBIESAT-1 06 Jul 23:59:25 23:59:53 10° 298° (WNW) 00:00:05 437.475
DUCHIFAT 1 07 Jul 00:04:11 00:07:55 32° 97° (E) 00:11:42 145.980
TISAT 1 07 Jul 00:05:53 00:08:08 15° 68° (ENE) 00:10:34 437.305
AISAT 07 Jul 00:07:08 00:11:26 45° 261° (W) 00:15:44 437.250
PCSat 07 Jul 00:08:42 00:12:31 20° 49° (NE) 00:16:30 145.827
BUGSAT 1 07 Jul 00:09:53 00:13:04 23° 95° (E) 00:16:18 437.445
POLYITAN 1 07 Jul 00:12:29 00:16:30 43° 99° (E) 00:20:31 437.675
ANTELSAT 07 Jul 00:14:05 00:18:30 69° 284° (WNW) 00:23:00 437.575/2403.000
CUBEBUG 1 07 Jul 00:16:25 00:20:51 71° 259° (WSW) 00:25:17 437.445
50 SAT 07 Jul 00:23:49 00:26:51 22° 265° (W) 00:29:48 437.505
TIGRISAT 07 Jul 00:25:20 00:29:38 52° 285° (WNW) 00:34:00 435.000
Cosmos 2499 07 Jul 00:29:47 00:35:12 19° 276° (W) 00:40:20 435.465 / 435.565
QB50P2 07 Jul 00:41:37 00:45:50 81° 284° (WNW) 00:50:03 145.880/145.840
POPSAT HIP 1 07 Jul 00:41:38 00:45:51 84° 283° (WNW) 00:50:03 437.405
SO-50 07 Jul 00:46:24 00:49:40 18° 45° (NE) 00:53:02 436.795
ESTCUBE 1 07 Jul 00:49:26 00:53:16 26° 265° (W) 00:57:01 437.505/2401.250
VELOX 1 07 Jul 00:57:55 01:00:16 14° 269° (W) 01:02:23 145.980
UNISAT 6 07 Jul 01:07:15 01:10:23 19° 291° (WNW) 01:13:24 437.425
SPROUT 07 Jul 01:08:19 01:12:36 65° 259° (W) 01:16:53 437.525
QB50P1 07 Jul 01:20:52 01:24:31 28° 288° (WNW) 01:28:05 145.935-145.965
RS-15 07 Jul 01:32:53 01:42:25 39° 108° (ESE) 01:52:23 29.354- 29.394
NANOSAT C BR1 07 Jul 01:34:24 01:37:35 21° 290° (WNW) 01:40:39 145.865
TISAT 1 07 Jul 01:39:33 01:43:35 42° 261° (W) 01:47:37 437.305
DUCHIFAT 1 07 Jul 01:40:36 01:43:32 18° 291° (WNW) 01:46:20 145.980
BEESAT 07 Jul 01:43:25 01:47:32 30° 70° (ENE) 01:51:43 436.000
BUGSAT 1 07 Jul 01:45:15 01:48:29 23° 289° (WNW) 01:51:36 437.445
POLYITAN 1 07 Jul 01:49:46 01:52:04 14° 292° (WNW) 01:54:12 437.675
PCSat 07 Jul 01:51:03 01:56:23 57° 247° (WSW) 02:01:40 145.827
SWISSCUBE 07 Jul 01:58:54 02:03:29 48° 73° (ENE) 02:08:07 437.505
ITUPSAT 1 07 Jul 02:05:31 02:10:08 51° 73° (ENE) 02:14:49 437.325
AIST 1 07 Jul 02:07:15 02:08:11 11° 69° (ENE) 02:09:23
Cosmos 2491 07 Jul 02:12:33 02:20:25 37° 73° (ENE) 02:28:23 435.465 / 435.565
KKS-1 07 Jul 02:17:46 02:18:03 10° 65° (ENE) 02:18:37 437.445
SO-50 07 Jul 02:25:47 02:30:41 61° 243° (WSW) 02:35:26 436.795
Oscar 19 07 Jul 02:30:24 02:35:18 45° 99° (E) 02:40:14 437.125/150
YUBILEINY 07 Jul 02:43:31 02:50:10 27° 85° (E) 02:57:09 435.215
ITAMSAT 1 07 Jul 02:49:13 02:52:31 17° 92° (E) 02:56:02 435.822/435.867
Gurwin Techsat 1B 07 Jul 02:58:24 03:02:34 24° 94° (E) 03:06:51 435.225
STARS 07 Jul 03:00:06 03:03:04 19° 69° (ENE) 03:06:11 437.465
BEESAT 07 Jul 03:21:28 03:25:23 24° 265° (W) 03:29:13 436.000
SWISSCUBE 07 Jul 03:38:47 03:41:40 15° 269° (W) 03:44:19 437.505
AIST 1 07 Jul 03:42:03 03:46:18 53° 266° (W) 03:50:28
RS-15 07 Jul 03:43:47 03:54:27 56° 308° (NW) 04:05:25 29.354- 29.394
ITUPSAT 1 07 Jul 03:45:40 03:48:23 14° 269° (W) 03:50:52 437.325
KKS-1 07 Jul 03:49:44 03:54:10 70° 258° (WSW) 03:58:37 437.445
Cosmos 2491 07 Jul 04:09:17 04:17:24 43° 271° (W) 04:25:19 435.465 / 435.565
Oscar 19 07 Jul 04:10:42 04:14:22 19° 293° (WNW) 04:17:52 437.125/150
JAS-2 07 Jul 04:24:56 04:31:36 50° 99° (E) 04:38:58 435.910
ITAMSAT 1 07 Jul 04:27:20 04:32:21 49° 288° (WNW) 04:37:19 435.822/435.867
MOZHAYETS 4 07 Jul 04:27:54 04:31:43 27° 71° (ENE) 04:35:37
STARS 07 Jul 04:35:16 04:39:17 34° 262° (W) 04:43:18 437.465
Gurwin Techsat 1B 07 Jul 04:37:47 04:42:40 37° 289° (WNW) 04:47:30 435.225
YUBILEINY 07 Jul 04:37:57 04:46:30 58° 282° (WNW) 04:55:02 435.215
AO-7 07 Jul 04:42:59 04:50:31 38° 98° (E) 04:58:08 29.400- 29.500
HORYU 2 07 Jul 04:45:10 04:49:14 35° 97° (E) 04:53:22 437.375
RS-15 07 Jul 06:02:59 06:10:21 19° 338° (NNW) 06:17:33 29.354- 29.394
Cosmos 2504 07 Jul 06:03:51 06:10:36 58° 93° (E) 06:17:24 435.465 / 435.565
MOZHAYETS 4 07 Jul 06:05:06 06:08:54 25° 266° (W) 06:12:39
JAS-2 07 Jul 06:10:38 06:16:27 30° 292° (WNW) 06:22:34 435.910
Cubesat XI-IV 07 Jul 06:22:06 06:23:19 11° 88° (E) 06:24:57 437.490
HORYU 2 07 Jul 06:22:27 06:25:40 19° 292° (WNW) 06:28:46 437.375
O/OREOS (USA 219) 07 Jul 06:24:42 06:26:36 13° 100° (E) 06:28:44 437.305
AO-7 07 Jul 06:35:34 06:43:25 45° 295° (WNW) 06:51:08 29.400- 29.500
CUBESAT XI-V 07 Jul 06:38:45 06:43:21 57° 75° (ENE) 06:48:00 437.345
ISS 07 Jul 06:43:04 06:45:38 22° 131° (SE) 06:48:17 145.825
VERMONT LUNAR 07 Jul 06:52:28 06:55:31 58° 156° (SSE) 06:58:35 437.305
BEESAT 3 07 Jul 06:55:47 06:59:46 59° 117° (ESE) 07:03:49 437.485
STRAND 1 07 Jul 07:06:35 07:11:18 39° 71° (ENE) 07:16:07 437.568
BEESAT 2 07 Jul 07:12:08 07:16:12 71° 118° (ESE) 07:20:19 435.950
PRISM 07 Jul 07:13:12 07:17:03 38° 73° (ENE) 07:20:58 437.425
AIST 2 07 Jul 07:13:57 07:16:30 16° 110° (ESE) 07:19:13 435.215
DANDE 07 Jul 07:15:57 07:20:06 18° 93° (E) 07:24:01 436.750
CUTE-I 07 Jul 07:23:44 07:28:55 48° 99° (E) 07:34:04 437.470
CUSAT 1 07 Jul 07:32:40 07:38:09 31° 96° (E) 07:42:36 437.405
PHONESAT 2.4 07 Jul 07:52:36 07:55:40 32° 150° (SSE) 07:58:47 2401.200-2431.200
Cosmos 2504 07 Jul 07:58:20 08:03:23 20° 291° (WNW) 08:08:09 435.465 / 435.565
Cubesat XI-IV 07 Jul 07:58:45 08:04:08 77° 285° (WNW) 08:09:28 437.490
O/OREOS (USA 219) 07 Jul 08:01:19 08:05:38 48° 294° (WNW) 08:09:58 437.305
M-CUBED/EXP-1 PRIME 07 Jul 08:12:06 08:13:33 13° 63° (ENE) 08:15:12 437.505
ISS 07 Jul 08:19:01 08:21:57 30° 326° (NW) 08:24:52 145.825
CUBESAT XI-V 07 Jul 08:19:06 08:21:13 12° 271° (W) 08:23:04 437.345
RS-15 07 Jul 08:22:58 08:29:13 16° 14° (NNE) 08:35:53 29.354- 29.394
VERMONT LUNAR 07 Jul 08:29:30 08:32:29 42° 351° (N) 08:35:29 437.305
BEESAT 3 07 Jul 08:36:04 08:38:09 13° 315° (NW) 08:40:05 437.485
GOMX 1 07 Jul 08:42:11 08:44:36 15° 92° (E) 08:47:12 467.674
STRAND 1 07 Jul 08:46:42 08:50:40 22° 267° (W) 08:54:31 437.568
PRISM 07 Jul 08:50:13 08:52:41 15° 268° (W) 08:55:00 437.425
AIST 2 07 Jul 08:50:43 08:54:46 41° 305° (NW) 08:58:50 435.215
BEESAT 2 07 Jul 08:53:10 08:54:47 12° 316° (NW) 08:56:14 435.950
DANDE 07 Jul 08:56:07 09:03:15 63° 279° (W) 09:08:40 436.750
CUTE-I 07 Jul 09:04:49 09:08:40 20° 294° (WNW) 09:12:19 437.470
AUBIESAT-1 07 Jul 09:07:26 09:10:42 60° 71° (ENE) 09:14:09 437.475
SEEDS 07 Jul 09:08:59 09:11:05 14° 91° (E) 09:13:24 437.485
DOVE 4 07 Jul 09:10:57 09:14:00 20° 94° (E) 09:17:12 437.250
GONETS M04 07 Jul 09:14:22 09:22:52 58° 92° (E) 09:31:25
CUSAT 1 07 Jul 09:15:20 09:20:41 28° 282° (WNW) 09:24:52 437.405
BRITE-PL 07 Jul 09:21:03 09:25:18 86° 102° (ESE) 09:29:26 437.365/2234.400
PHONESAT 2.4 07 Jul 09:30:11 09:33:34 61° 344° (NNW) 09:37:00 2401.200-2431.200
HO-68 07 Jul 09:30:29 09:37:09 41° 98° (E) 09:43:52 435.675
CINEMA 3 07 Jul 09:34:30 09:37:09 17° 93° (E) 09:40:01 145.822/145.860
COMPASS 1 07 Jul 09:40:02 09:43:31 25° 95° (E) 09:47:04 437.405
M-CUBED/EXP-1 PRIME 07 Jul 09:45:13 09:48:09 29° 258° (WSW) 09:51:10 437.505
Oscar 11 07 Jul 09:53:40 09:55:39 13° 90° (E) 09:57:53 145.826/435.025
CUTE 1.7 + AOD 2 07 Jul 09:59:34 10:03:51 72° 101° (E) 10:08:08 437.475
CUBEBUG 2 07 Jul 10:02:20 10:04:56 16° 92° (E) 10:07:46 437.445
CANX-2 07 Jul 10:03:24 10:07:43 90° 100° (E) 10:12:01 2200.000
VERMONT LUNAR 07 Jul 10:06:44 10:09:42 41° 8° (N) 10:12:42 437.305
GOMX 1 07 Jul 10:19:10 10:22:56 33° 287° (WNW) 10:26:40 467.674
FUNcube-1 07 Jul 10:25:41 10:28:29 18° 93° (E) 10:31:29 145.935
UNISAT 6 07 Jul 10:27:02 10:30:22 23° 70° (ENE) 10:33:47 437.425
RS-15 07 Jul 10:35:26 10:46:13 42° 46° (NE) 10:57:34 29.354- 29.394
QB50P1 07 Jul 10:37:35 10:39:03 12° 67° (ENE) 10:40:44 145.935-145.965
DELFI C3 07 Jul 10:40:30 10:44:07 31° 96° (E) 10:47:46 145.870
SEEDS 07 Jul 10:43:05 10:47:07 42° 286° (WNW) 10:51:08 437.485
UWE-3 07 Jul 10:45:42 10:49:44 41° 98° (E) 10:53:53 435.000/436.395/437.385
AAUSAT CUBESAT 2 07 Jul 10:46:10 10:50:19 58° 285° (WNW) 10:54:27 437.432
DOVE 4 07 Jul 10:48:18 10:51:49 26° 288° (WNW) 10:55:17 437.250
NANOSAT C BR1 07 Jul 10:49:22 10:51:55 16° 68° (ENE) 10:54:36 145.865
DUCHIFAT 1 07 Jul 10:54:53 10:57:42 18° 69° (ENE) 11:00:40 145.980
BUGSAT 1 07 Jul 10:58:51 11:00:43 13° 68° (ENE) 11:02:48 437.445
POLYITAN 1 07 Jul 11:03:28 11:06:50 24° 71° (ENE) 11:10:17 437.675
PHONESAT 2.4 07 Jul 11:08:37 11:11:53 40° 2° (N) 11:15:11 2401.200-2431.200
Cosmos 2499 07 Jul 11:08:55 11:15:50 65° 94° (E) 11:22:55 435.465 / 435.565
DX 1 07 Jul 11:10:25 11:13:25 19° 94° (E) 11:16:32 434.975-435.025
ANTELSAT 07 Jul 11:10:35 11:14:51 76° 77° (ENE) 11:19:07 437.575/2403.000
CINEMA 3 07 Jul 11:10:41 11:14:30 34° 287° (WNW) 11:18:22 145.822/145.860
GONETS M04 07 Jul 11:12:58 11:20:18 28° 291° (WNW) 11:27:21
VELOX 1 07 Jul 11:14:57 11:15:42 11° 89° (E) 11:16:46 145.980
COMPASS 1 07 Jul 11:15:42 11:19:06 23° 289° (WNW) 11:22:23 437.405
HO-68 07 Jul 11:18:24 11:24:47 35° 294° (WNW) 11:31:00 435.675
HUMSAT D 07 Jul 11:19:19 11:23:00 30° 96° (E) 11:26:47 437.325/437.525
TIGRISAT 07 Jul 11:21:30 11:25:46 83° 258° (WSW) 11:30:03 435.000
ZACube-1 07 Jul 11:25:58 11:30:15 85° 283° (WNW) 11:34:36 437.345
UKube-1 07 Jul 11:26:01 11:29:36 26° 96° (E) 11:33:15 .
Oscar 11 07 Jul 11:27:58 11:32:08 46° 286° (WNW) 11:36:17 145.826/435.025
POPSAT HIP 1 07 Jul 11:31:43 11:35:49 50° 75° (ENE) 11:39:56 437.405
QB50P2 07 Jul 11:31:49 11:35:56 53° 75° (ENE) 11:40:04 145.880/145.840
CUBEBUG 2 07 Jul 11:37:52 11:41:47 36° 287° (WNW) 11:45:45 437.445
VERMONT LUNAR 07 Jul 11:43:36 11:46:42 62° 205° (SSW) 11:49:48 437.305
AISAT 07 Jul 12:00:17 12:04:24 39° 98° (E) 12:08:32 437.250
50 SAT 07 Jul 12:00:52 12:04:39 46° 99° (E) 12:08:27 437.505
FUNcube-1 07 Jul 12:01:04 12:04:55 33° 287° (WNW) 12:08:48 145.935
UNISAT 6 07 Jul 12:03:29 12:07:05 25° 265° (W) 12:10:35 437.425
CUBEBUG 1 07 Jul 12:08:25 12:11:58 25° 95° (E) 12:15:35 437.445
QB50P1 07 Jul 12:10:21 12:14:31 53° 261° (W) 12:18:40 145.935-145.965
DELFI C3 07 Jul 12:16:11 12:18:59 18° 290° (WNW) 12:21:39 145.870
UWE-3 07 Jul 12:23:27 12:26:00 15° 291° (WNW) 12:28:25 435.000/436.395/437.385
NANOSAT C BR1 07 Jul 12:23:32 12:27:29 37° 262° (W) 12:31:24 145.865
DUCHIFAT 1 07 Jul 12:29:29 12:33:19 32° 263° (W) 12:37:06 145.980
BUGSAT 1 07 Jul 12:31:45 12:35:50 47° 261° (W) 12:39:53 437.445
POLYITAN 1 07 Jul 12:39:11 12:42:41 24° 265° (W) 12:46:06 437.675
ESTCUBE 1 07 Jul 12:43:43 12:48:17 80° 103° (ESE) 12:52:47 437.505/2401.250
DX 1 07 Jul 12:45:52 12:49:46 32° 288° (WNW) 12:53:35 434.975-435.025
PHONESAT 2.4 07 Jul 12:46:41 12:50:08 78° 18° (NNE) 12:53:36 2401.200-2431.200
RS-15 07 Jul 12:47:45 12:59:19 61° 247° (WSW) 13:11:08 29.354- 29.394
VELOX 1 07 Jul 12:48:22 12:52:43 58° 285° (WNW) 12:57:01 145.980
HUMSAT D 07 Jul 12:55:33 12:58:34 19° 290° (WNW) 13:01:30 437.325/437.525
SPROUT 07 Jul 12:58:00 13:01:31 25° 95° (E) 13:05:05 437.525
UKube-1 07 Jul 13:02:09 13:05:39 24° 290° (WNW) 13:09:02 .
Cosmos 2499 07 Jul 13:04:54 13:09:46 18° 294° (WNW) 13:14:20 435.465 / 435.565
POPSAT HIP 1 07 Jul 13:10:34 13:12:03 11° 270° (W) 13:13:14 437.405
QB50P2 07 Jul 13:11:01 13:12:12 11° 270° (W) 13:13:07 145.880/145.840
ISS 07 Jul 13:12:45 13:14:36 14° 25° (NNE) 13:16:31 145.825
VERMONT LUNAR 07 Jul 13:22:27 13:23:13 11° 216° (SW) 13:23:52 437.305
TISAT 1 07 Jul 13:26:31 13:30:18 34° 97° (E) 13:34:07 437.305
50 SAT 07 Jul 13:37:28 13:38:54 11° 292° (WNW) 13:40:08 437.505
AISAT 07 Jul 13:37:51 13:40:42 17° 292° (WNW) 13:43:24 437.250
CUBEBUG 1 07 Jul 13:44:42 13:48:16 24° 290° (WNW) 13:51:43 437.445
Oscar 19 07 Jul 13:44:42 13:49:39 51° 73° (ENE) 13:54:38 437.125/150
SWISSCUBE 07 Jul 14:03:10 14:05:50 15° 91° (E) 14:08:44 437.505
ITAMSAT 1 07 Jul 14:04:42 14:08:33 22° 67° (ENE) 14:12:34 435.822/435.867
ITUPSAT 1 07 Jul 14:09:55 14:12:49 16° 92° (E) 14:15:54 437.325
Gurwin Techsat 1B 07 Jul 14:16:59 14:21:30 30° 69° (ENE) 14:26:08 435.225
PHONESAT 2.4 07 Jul 14:25:09 14:27:56 22° 213° (SSW) 14:30:41 2401.200-2431.200
SPROUT 07 Jul 14:34:04 14:37:31 23° 290° (WNW) 14:40:51 437.525
JAS-2 07 Jul 14:39:30 14:41:08 12° 61° (ENE) 14:43:05 435.910
PCSat 07 Jul 14:47:46 14:52:08 26° 108° (ESE) 14:56:39 145.827
ISS 07 Jul 14:48:07 14:51:22 78° 221° (SW) 14:54:35 145.825
YUBILEINY 07 Jul 14:50:57 14:59:39 64° 80° (E) 15:08:22 435.215
TISAT 1 07 Jul 15:03:02 15:05:50 17° 291° (WNW) 15:08:30 437.305
Cosmos 2491 07 Jul 15:10:08 15:18:22 47° 90° (E) 15:26:41 435.465 / 435.565
BEESAT 3 07 Jul 15:17:29 15:20:13 18° 48° (NE) 15:23:01 437.485
BEESAT 07 Jul 15:23:05 15:27:54 79° 284° (WNW) 15:32:41 436.000
Oscar 19 07 Jul 15:26:06 15:29:22 16° 269° (W) 15:32:24 437.125/150
BEESAT 2 07 Jul 15:34:14 15:37:17 20° 50° (NE) 15:40:24 435.950
AO-7 07 Jul 15:39:09 15:46:44 42° 64° (ENE) 15:54:28 29.400- 29.500
SWISSCUBE 07 Jul 15:39:23 15:44:01 48° 287° (WNW) 15:48:36 437.505
HORYU 2 07 Jul 15:41:25 15:44:56 24° 70° (ENE) 15:48:31 437.375
ITAMSAT 1 07 Jul 15:42:53 15:47:48 41° 262° (W) 15:52:45 435.822/435.867
KKS-1 07 Jul 15:43:49 15:47:31 26° 96° (E) 15:51:17 437.445
ITUPSAT 1 07 Jul 15:46:22 15:50:59 46° 287° (WNW) 15:55:33 437.325
Cosmos 2504 07 Jul 15:53:44 15:57:43 15° 66° (ENE) 16:02:21 435.465 / 435.565
Gurwin Techsat 1B 07 Jul 15:56:47 16:01:27 30° 264° (W) 16:06:03 435.225
AIST 1 07 Jul 16:08:17 16:12:41 82° 277° (W) 16:17:07
JUGNU 07 Jul 16:15:46 16:18:46 14° 173° (S) 16:21:50 437.505
JAS-2 07 Jul 16:20:25 16:25:34 75° 258° (WSW) 16:31:01 435.910
STARS 07 Jul 16:27:01 16:31:16 49° 100° (E) 16:35:31 437.465
PCSat 07 Jul 16:30:23 16:35:24 37° 304° (NW) 16:40:25 145.827
O/OREOS (USA 219) 07 Jul 16:35:18 16:38:25 18° 58° (ENE) 16:41:39 437.305
SO-50 07 Jul 16:37:17 16:41:57 81° 119° (ESE) 16:46:50 436.795
YUBILEINY 07 Jul 16:49:06 16:55:53 25° 276° (W) 17:02:18 435.215
BEESAT 3 07 Jul 16:54:34 16:58:21 38° 245° (WSW) 17:02:02 437.485
Cosmos 2491 07 Jul 17:07:33 17:15:28 35° 288° (WNW) 17:23:13 435.465 / 435.565
BEESAT 2 07 Jul 17:11:47 17:15:26 32° 246° (WSW) 17:18:59 435.950
AIST 2 07 Jul 17:14:34 17:18:42 57° 57° (ENE) 17:22:46 435.215
SRMSAT 07 Jul 17:15:17 17:17:20 12° 169° (S) 17:19:28 437.500
HORYU 2 07 Jul 17:17:44 17:21:29 26° 265° (W) 17:25:10 437.375
KKS-1 07 Jul 17:20:28 17:24:04 24° 290° (WNW) 17:27:35 437.445
AO-7 07 Jul 17:31:46 17:39:32 41° 261° (W) 17:47:16 29.400- 29.500
Cubesat XI-IV 07 Jul 17:40:49 17:43:55 16° 65° (ENE) 17:47:16 437.490
Cosmos 2504 07 Jul 17:43:16 17:50:58 89° 264° (W) 17:59:14 435.465 / 435.565
MOZHAYETS 4 07 Jul 18:01:40 18:06:21 88° 278° (W) 18:10:59
JUGNU 07 Jul 18:03:41 18:07:03 15° 183° (S) 18:10:23 437.505
STARS 07 Jul 18:05:06 18:07:20 14° 293° (WNW) 18:09:23 437.465
O/OREOS (USA 219) 07 Jul 18:13:48 18:18:01 38° 255° (WSW) 18:22:14 437.305
SO-50 07 Jul 18:20:37 18:23:12 14° 318° (NW) 18:25:38 436.795
CUBESAT XI-V 07 Jul 18:39:13 18:42:11 17° 91° (E) 18:45:20 437.345
CUTE-I 07 Jul 18:42:58 18:48:14 63° 74° (ENE) 18:53:34 437.470
AIST 2 07 Jul 18:55:41 18:56:49 11° 251° (WSW) 18:57:42 435.215
SRMSAT 07 Jul 19:02:20 19:05:45 16° 179° (S) 19:09:09 437.500
Cubesat XI-IV 07 Jul 19:18:16 19:23:34 60° 259° (W) 19:28:54 437.490
STRAND 1 07 Jul 19:20:51 19:23:52 16° 91° (E) 19:27:05 437.568
GONETS M04 07 Jul 19:28:39 19:35:15 25° 68° (ENE) 19:42:11
Cosmos 2504 07 Jul 19:38:31 19:42:26 14° 277° (W) 19:45:49 435.465 / 435.565
DANDE 07 Jul 19:41:15 19:43:53 77° 81° (E) 19:46:30 436.750
GOMX 1 07 Jul 19:47:48 19:50:54 17° 69° (ENE) 19:54:05 467.674
JUGNU 07 Jul 19:54:27 19:55:18 10° 193° (SSW) 19:56:00 437.505
CUSAT 1 07 Jul 19:55:05 19:57:21 26° 264° (W) 19:59:44 437.405
HO-68 07 Jul 19:57:29 20:02:51 25° 63° (ENE) 20:08:28 435.675
DOVE 4 07 Jul 20:14:25 20:17:38 19° 70° (ENE) 20:20:53 437.250
CUBESAT XI-V 07 Jul 20:15:28 20:19:51 40° 287° (WNW) 20:24:09 437.345
CUTE-I 07 Jul 20:25:53 20:28:51 14° 270° (W) 20:31:29 437.470
BRITE-PL 07 Jul 20:28:09 20:33:36 76° 78° (ENE) 20:38:42 437.365/2234.400
COMPASS 1 07 Jul 20:30:21 20:32:13 13° 68° (ENE) 20:34:18 437.405
PRISM 07 Jul 20:32:51 20:37:04 88° 284° (WNW) 20:41:13 437.425
CINEMA 3 07 Jul 20:35:15 20:37:02 13° 68° (ENE) 20:39:02 145.822/145.860
CUTE 1.7 + AOD 2 07 Jul 20:50:03 20:53:52 35° 73° (ENE) 20:57:45 437.475
SRMSAT 07 Jul 20:51:32 20:54:09 13° 189° (S) 20:56:42 437.500
CANX-2 07 Jul 20:53:47 20:57:46 44° 74° (ENE) 21:01:49 2200.000
STRAND 1 07 Jul 20:58:26 21:03:26 52° 287° (WNW) 21:08:22 437.568
CUBEBUG 2 07 Jul 21:00:47 21:01:15 10° 67° (ENE) 21:02:00 437.445
Cosmos 2499 07 Jul 21:02:41 21:08:11 21° 68° (ENE) 21:14:20 435.465 / 435.565
FUNcube-1 07 Jul 21:21:53 21:22:10 10° 67° (ENE) 21:22:43 145.935
GOMX 1 07 Jul 21:23:50 21:28:47 48° 261° (W) 21:33:25 467.674
GONETS M04 07 Jul 21:24:17 21:32:51 64° 267° (W) 21:41:22
DELFI C3 07 Jul 21:26:37 21:28:42 14° 69° (ENE) 21:30:59 145.870
M-CUBED/EXP-1 PRIME 07 Jul 21:27:26 21:30:48 21° 99° (E) 21:34:26 437.505
SEEDS 07 Jul 21:32:06 21:36:16 87° 257° (WSW) 21:40:29 437.485
AAUSAT CUBESAT 2 07 Jul 21:34:03 21:38:08 64° 76° (ENE) 21:42:16 437.432
UWE-3 07 Jul 21:41:05 21:44:27 24° 72° (ENE) 21:47:52 435.000/436.395/437.385
HO-68 07 Jul 21:43:06 21:50:09 60° 258° (WSW) 21:57:12 435.675
DOVE 4 07 Jul 21:50:40 21:55:12 38° 262° (W) 21:59:28 437.250
